Overview Statistics Trail Chart Weather Telemetry Raw packets
 

This is the latest recevied weather packets stored in our database for station/object KN6CRX-10. If no packets are shown the sender has not sent any weather packets the latest 10 day(s).

<< 3 4 5 6 7 8 9 >>
Time Temp. Humidity Pressure Rain* Wind** Luminosity Snow
1788403931 18.89° C 28% 1014.2 hPa 0 mm - 0 W/m² -
1788403631 18.89° C 28% 1014.2 hPa 0 mm - 0 W/m² -
1788403330 18.89° C 28% 1014.1 hPa 0 mm - 0 W/m² -
1788403026 18.89° C 28% 1014.2 hPa 0 mm - 0 W/m² -
1788402721 19.44° C 29% 1014 hPa 0 mm - 0 W/m² -
1788402416 19.44° C 28% 1013.9 hPa 0 mm - 0 W/m² -
1788402115 19.44° C 29% 1014.1 hPa 0 mm - 0 W/m² -
1788401815 19.44° C 29% 1014.2 hPa 0 mm - 0 W/m² -
1788401510 20° C 29% 1014 hPa 0 mm - 0 W/m² -
1788401205 20° C 28% 1013.8 hPa 0 mm - 1 W/m² -
1788400899 20° C 27% 1014 hPa 0 mm - 2 W/m² -
1788400595 20° C 27% 1013.9 hPa 0 mm - 2 W/m² -
1788400290 20° C 29% 1014.2 hPa 0 mm - 3 W/m² -
1788399990 20.56° C 31% 1014 hPa 0 mm - 3 W/m² -
1788399690 20.56° C 29% 1013.8 hPa 0 mm - 5 W/m² -
1788399384 21.11° C 25% 1013.9 hPa 0 mm - 7 W/m² -
1788399085 21.11° C 26% 1014.1 hPa 0 mm - 12 W/m² -
1788398783 21.67° C 25% 1014 hPa 0 mm - 21 W/m² -
1788398483 21.67° C 21% 1013.9 hPa 0 mm - 22 W/m² -
1788398182 21.67° C 21% 1014.1 hPa 0 mm - 20 W/m² -
1788397877 22.22° C 21% 1014.1 hPa 0 mm - 23 W/m² -
1788397573 22.22° C 21% 1014.1 hPa 0 mm - 30 W/m² -
1788397271 22.22° C 21% 1014 hPa 0 mm - 33 W/m² -
1788396966 22.22° C 21% 1014.2 hPa 0 mm - 42 W/m² -
1788396662 22.78° C 19% 1014.4 hPa 0 mm - 49 W/m² -

* Rain latest hour (hover to see other rain measurements)
** Current wind speed in m/s (hover to see current wind gust speed)